TimePST,TemperatureF,Dew PointF,Humidity,Sea Level PressureIn,VisibilityMPH,Wind Direction,Wind SpeedMPH,Gust SpeedMPH,PrecipitationIn,Events,Conditions,WindDirDegrees,DateUTC
12:58 AM,31.5,31.1,99,30.13,7.0,South,2.3,-,N/A,,Partly Cloudy,170,2013-01-11 08:58:00
1:03 AM,32.0,32.0,100,30.11,2.5,SSE,3.5,-,N/A,,Partly Cloudy,160,2013-01-11 09:03:00
1:08 AM,30.2,30.2,100,30.12,0.8,SSE,2.3,-,N/A,,Clear,150,2013-01-11 09:08:00
1:09 AM,30.2,30.2,100,30.12,0.5,SSE,2.3,-,N/A,Fog,Light Freezing Fog,150,2013-01-11 09:09:00
1:14 AM,30.2,30.2,100,30.12,0.2,SE,3.5,-,N/A,Fog,Light Freezing Fog,130,2013-01-11 09:14:00
1:31 AM,28.4,28.4,100,30.12,0.2,SSE,2.3,-,N/A,Fog,Light Freezing Drizzle,150,2013-01-11 09:31:00
1:34 AM,28.4,28.4,100,30.13,0.5,SSE,2.3,-,N/A,Fog,Light Freezing Drizzle,150,2013-01-11 09:34:00
1:39 AM,28.4,28.4,100,30.13,0.5,SE,3.5,-,N/A,Fog,Light Freezing Drizzle,130,2013-01-11 09:39:00
1:42 AM,30.2,28.4,93,30.13,0.8,ESE,3.5,-,N/A,,Partly Cloudy,120,2013-01-11 09:42:00
1:44 AM,30.2,30.2,100,30.13,0.8,ESE,3.5,-,N/A,Fog,Light Freezing Fog,120,2013-01-11 09:44:00
1:47 AM,30.2,30.2,100,30.13,0.8,SE,3.5,-,N/A,,Scattered Clouds,140,2013-01-11 09:47:00
1:53 AM,28.4,28.4,100,30.13,0.8,SSE,3.5,-,N/A,,Scattered Clouds,150,2013-01-11 09:53:00
1:55 AM,28.4,28.4,100,30.13,0.8,SSE,3.5,-,N/A,,Scattered Clouds,150,2013-01-11 09:55:00
2:04 AM,28.4,28.4,100,30.13,0.2,SE,3.5,-,N/A,Fog,Light Freezing Fog,140,2013-01-11 10:04:00
2:15 AM,28.4,28.4,100,30.13,0.5,SE,3.5,-,N/A,Fog,Light Freezing Fog,130,2013-01-11 10:15:00
2:18 AM,28.4,28.4,100,30.13,0.8,SE,3.5,-,N/A,,Clear,130,2013-01-11 10:18:00
2:24 AM,28.4,28.4,100,30.13,1.2,SE,2.3,-,N/A,,Clear,140,2013-01-11 10:24:00
2:34 AM,28.4,28.4,100,30.13,1.0,SE,2.3,-,N/A,,Clear,130,2013-01-11 10:34:00
2:39 AM,28.4,28.4,100,30.14,1.2,SE,2.3,-,N/A,,Clear,140,2013-01-11 10:39:00
2:44 AM,28.4,28.4,100,30.13,1.0,SSE,3.5,-,N/A,,Clear,150,2013-01-11 10:44:00
2:49 AM,28.4,26.6,93,30.14,0.8,SE,4.6,-,N/A,,Clear,130,2013-01-11 10:49:00
2:54 AM,28.4,26.6,93,30.14,1.0,SE,4.6,-,N/A,,Clear,140,2013-01-11 10:54:00
2:58 AM,27.7,27.5,99,30.16,1.0,SSE,5.8,-,N/A,,Clear,150,2013-01-11 10:58:00
3:06 AM,26.6,26.6,100,30.14,0.5,SE,5.8,-,N/A,Fog,Light Freezing Fog,140,2013-01-11 11:06:00
3:22 AM,26.6,26.6,100,30.14,0.8,SE,3.5,-,N/A,,Clear,130,2013-01-11 11:22:00
3:27 AM,26.6,26.6,100,30.14,3.0,ESE,3.5,-,N/A,,Clear,110,2013-01-11 11:27:00
3:33 AM,28.4,26.6,93,30.14,10.0,ESE,2.3,-,N/A,,Clear,120,2013-01-11 11:33:00
3:55 AM,24.8,24.8,100,30.15,10.0,SE,4.6,-,N/A,,Partly Cloudy,140,2013-01-11 11:55:00
4:55 AM,24.8,24.8,100,30.16,10.0,SSE,3.5,-,N/A,,Clear,150,2013-01-11 12:55:00
5:58 AM,26.1,25.5,98,30.19,10.0,SE,3.5,-,N/A,,Clear,140,2013-01-11 13:58:00
6:58 AM,24.1,23.2,96,30.22,10.0,SE,4.6,-,N/A,,Clear,130,2013-01-11 14:58:00
7:58 AM,24.8,24.1,97,30.25,10.0,ESE,2.3,-,N/A,,Clear,120,2013-01-11 15:58:00
8:58 AM,25.9,25.5,99,30.27,10.0,SE,4.6,-,N/A,,Clear,140,2013-01-11 16:58:00
9:58 AM,30.4,30.0,99,30.27,10.0,SSE,2.3,-,N/A,,Clear,150,2013-01-11 17:58:00
10:58 AM,34.3,27.3,76,30.28,10.0,North,5.8,-,N/A,,Clear,10,2013-01-11 18:58:00
11:58 AM,36.0,24.6,63,30.28,10.0,North,5.8,-,N/A,,Clear,360,2013-01-11 19:58:00
12:58 PM,37.2,25.7,63,30.30,10.0,North,8.1,-,N/A,,Clear,360,2013-01-11 20:58:00
1:58 PM,37.4,22.8,56,30.29,10.0,North,6.9,-,N/A,,Clear,10,2013-01-11 21:58:00
2:58 PM,37.0,20.3,51,30.32,10.0,NNE,3.5,-,N/A,,Partly Cloudy,20,2013-01-11 22:58:00
3:58 PM,37.0,21.2,53,30.30,10.0,East,2.3,-,N/A,,Clear,90,2013-01-11 23:58:00
4:58 PM,31.1,25.7,80,30.34,10.0,ESE,2.3,-,N/A,,Clear,120,2013-01-12 00:58:00
5:58 PM,29.3,24.4,82,30.34,10.0,SE,3.5,-,N/A,,Clear,130,2013-01-12 01:58:00
6:58 PM,25.9,24.4,94,30.34,10.0,East,1.2,-,N/A,,Clear,100,2013-01-12 02:58:00
7:58 PM,25.9,24.3,94,30.33,10.0,SE,3.5,-,N/A,,Clear,140,2013-01-12 03:58:00
8:58 PM,26.1,24.8,95,30.33,10.0,SE,5.8,-,N/A,,Clear,140,2013-01-12 04:58:00
9:58 PM,24.8,23.2,94,30.34,10.0,ESE,2.3,-,N/A,,Clear,120,2013-01-12 05:58:00
10:58 PM,24.6,23.7,96,30.33,10.0,SSE,2.3,-,N/A,,Clear,150,2013-01-12 06:58:00
11:58 PM,24.4,23.4,96,30.32,10.0,SE,2.3,-,N/A,,Clear,140,2013-01-12 07:58:00